www.pogodaiklimat.ru
ПОГОДА в Мильхостове
Время
(UTC), дата
22 17.02
23 17.02
00 18.02
03 18.02
04 18.02
05 18.02
06 18.02
07 18.02
08 18.02
09 18.02
10 18.02
11 18.02
12 18.02
13 18.02
14 18.02
15 18.02
16 18.02
17 18.02
18 18.02
19 18.02
20 18.02
21 18.02
22 18.02
23 18.02
00 19.02
01 19.02
02 19.02
03 19.02
04 19.02
05 19.02
06 19.02
07 19.02
08 19.02
09 19.02
10 19.02
11 19.02
12 19.02
13 19.02
14 19.02
15 19.02
16 19.02
17 19.02
18 19.02
19 19.02
20 19.02
21 19.02
22 19.02
23 19.02
00 20.02
01 20.02
02 20.02
03 20.02
04 20.02
05 20.02
06 20.02
07 20.02
08 20.02
09 20.02
10 20.02
11 20.02
12 20.02
13 20.02
14 20.02
15 20.02
16 20.02
17 20.02
18 20.02
19 20.02
20 20.02
21 20.02
22 20.02
23 20.02
00 21.02
01 21.02
02 21.02
03 21.02
04 21.02
05 21.02
06 21.02
07 21.02
08 21.02
09 21.02
10 21.02
11 21.02
12 21.02
13 21.02
14 21.02
15 21.02
16 21.02
17 21.02
18 21.02
19 21.02
20 21.02
21 21.02
22 21.02
23 21.02
00 22.02
01 22.02
02 22.02
03 22.02
04 22.02
05 22.02
06 22.02
07 22.02
08 22.02
09 22.02
10 22.02
11 22.02
12 22.02
13 22.02
14 22.02
15 22.02
16 22.02
17 22.02
18 22.02
19 22.02
20 22.02
21 22.02
22 22.02
23 22.02
00 23.02
01 23.02
02 23.02
03 23.02
04 23.02
05 23.02
06 23.02
07 23.02
08 23.02
09 23.02
10 23.02
11 23.02
12 23.02
13 23.02
14 23.02
15 23.02
16 23.02
17 23.02
18 23.02
19 23.02
20 23.02
21 23.02
22 23.02
23 23.02
00 24.02
01 24.02
02 24.02
03 24.02
04 24.02
05 24.02
06 24.02
07 24.02
08 24.02
09 24.02
10 24.02
11 24.02
12 24.02
13 24.02
14 24.02
15 24.02
16 24.02
17 24.02
18 24.02
19 24.02
20 24.02
Ветер
(напр.,м/с)
Видим. Явления Облачность Т
(С)
Тd
(С)
f
(%)
Тe
(С)
Тes
(С)
Комфортность P
(гПа)
Po
(гПа)
Тmin
(С)
Tmax
(С)
R
(мм)
R24
(мм)
S
(см)
В 1 н/о н/о -1.4 -1.4 100 -4 -4 1018.6 1005.2
В 2 н/о н/о -1.5 -1.5 100 -6 -6 1018.8 1005.3
В 2 н/о н/о -1.6 -1.6 100 -6 -6 1018.8 1005.4 0.1
СВ 1 н/о н/о -1.7 -1.7 100 -4 -4 1019.4 1005.9
штиль 0 н/о н/о -1.7 -1.7 100 -3 -3 1019.8 1006.3
С 1 н/о н/о -1.7 -1.7 100 -4 -4 1020.2 1006.7
С 1 2500 м дымка {снег} 10/10 180 м
[Sc]
-1.6 -1.6 100 -4 -4 1020.7 1007.2 -1.8 0.4 2.2 9
3000 м дымка 10/10 180 м
[Sc]
-1.1 -1.1 100 1021.2 1007.7
С 2 2500 м слаб. снег 10/10 180 м
[Sc]
-0.8 -0.9 99 -5 -5 1021.6 1008.2
нст 1 5000 м в посл. час снег 10/10 180 м
[Sc]
+0.6 -0.8 90 -1 -1 1022.0 1008.6
10 км 10/10 800 м
[Sc]
+1.7 -1.7 78 1022.4 1009.1
10 км 10/10 800 м
[Sc]
+2.5 -1.3 76 1022.6 1009.3
нст 1 10 км {снег} 10/10 800 м
[Sc]
+2.5 -1.3 76 +1 +1 1022.9 1009.6 0.0
10 км 10/10 800 м
[Sc]
+2.4 -1.6 75 1022.8 1009.5
10 км 9/9 800 м
[Sc]
+2.1 -1.2 79 1023.0 1009.7
нст 1 10 км 9/9 800 м
[Sc]
+2.0 -0.6 83 1023.3 1010.0
С 3 15 км 9/9 1000 м
[Sc]
+1.7 -0.5 85 -3 -3 1023.4 1010.1
С 3 15 км 9/9 1000 м
[Sc]
+1.5 -0.6 86 -3 -3 1024.0 1010.6
нст 1 15 км 8/8 1000 м
[Sc]
+0.2 -1.5 88 -2 -2 1024.3 1010.9 +2.9 7
Ю 2 15 км 4/4 1000 м
[Sc]
-0.6 -1.4 94 -4 -4 1024.6 1011.1
штиль 0 10 км 4/4 900 м
[Sc]
-2.0 -2.1 99 -3 -3 1025.0 1011.5
Ю 2 н/о н/о -3.0 -3.0 100 -7 -7 1025.5 1011.9
н/о н/о -3.8 -4.2 97 1025.9 1012.2
СВ 1 н/о н/о -3.7 -3.7 100 -6 -6 1025.8 1012.2
штиль 0 н/о н/о -4.3 -4.3 100 -6 -6 1026.1 1012.4
ЮВ 2 н/о н/о -3.5 -3.5 100 -8 -8 1025.9 1012.3
ЮВ 2 н/о н/о -3.2 -3.2 100 -8 -8 1026.1 1012.5
В 1 н/о н/о -2.9 -2.9 100 -5 -5 1026.2 1012.6
ЮВ 4 н/о н/о -2.8 -2.8 100 -9 -9 1026.3 1012.7
Ю 2 н/о н/о -3.1 -3.1 100 -7 -7 1026.3 1012.7
нст 1 3000 м дымка 10/10 90 м
[St]
-3.1 -3.1 100 -6 -6 1026.7 1013.1 -4.4 0.0 7
3000 м дымка 10/10 90 м
[St]
-2.5 -2.5 100 1027.3 1013.7
3000 м дымка 10/10 90 м
[St]
-2.1 -2.1 100 1027.4 1013.8
штиль 0 4000 м дымка 10/10 180 м
[St]
-1.3 -1.6 98 -3 -3 1027.4 1013.9
5000 м дымка 10/10 300 м
[St]
-0.6 -2.0 90 1027.1 1013.6
7000 м дымка 10/10 300 м
[St]
-0.2 -2.1 87 1026.7 1013.2
ЮВ 1 8000 м дымка 10/10 400 м
[St]
+0.2 -2.0 85 -2 -2 1026.1 1012.6
ЮВ 2 8000 м дымка 10/10 480 м
[St]
+0.6 -2.6 79 -3 -3 1025.4 1012.0
ЮВ 1 9000 м дымка 10/10 600 м
[Sc]
+0.7 -2.5 79 -1 -1 1025.0 1011.6
нст 1 9000 м дымка 10/10 600 м
[Sc]
+0.5 -1.9 84 -1 -1 1024.7 1011.3
5000 м ледяной дождь (гололёд) 10/10 700 м
[Sc]
-0.2 -0.8 96 1024.6 1011.1
СЗ 2 1500 м слаб. снег {дождь} 10/10 90 м
[Sc]
-0.2 -0.2 100 -4 -4 1025.0 1011.5
С 1 1100 м слаб. снег {дождь} 10/10 90 м
[Frnb]
-0.4 -0.4 100 -3 -3 1025.0 1011.5 +0.9 4 12
1300 м слаб. снег 10/10 90 м
[Frnb]
-0.3 -0.3 100 1024.8 1011.3
С 2 1500 м слаб. снег 10/10 90 м
[Frnb]
0.0 0.0 100 -4 -4 1025.0 1011.6
СЗ 2 н/о н/о -0.1 -0.1 100 -4 -4 1025.1 1011.6
СЗ 2 н/о н/о +0.1 +0.1 100 -4 -4 1024.8 1011.4
н/о н/о 0.0 0.0 100 1024.8 1011.4
нст 2 н/о н/о 0.0 -0.0 100 -4 -4 1025.2 1011.7 1
С 1 н/о н/о -0.5 -0.5 100 -3 -3 1025.2 1011.7
С 2 н/о н/о -0.1 -0.1 100 -4 -4 1025.4 1011.9
н/о н/о +0.3 +0.3 100 1025.6 1012.2
н/о н/о +0.1 +0.1 100 1026.1 1012.6
н/о н/о -0.1 -0.1 100 1026.4 1012.9
СЗ 3 6000 м дымка 10/10 150 м
[St]
-0.6 -0.6 100 -6 -6 1026.8 1013.3 -0.7 1 5.9 13
С 2 8000 м дымка 10/10 210 м
[St]
+0.1 +0.1 100 -4 -4 1027.5 1014.0
15 км 4/4 1380 м
[Sc]
+1.5 -1.2 82 1027.8 1014.4
нст 2 30 км 1/1 1500 м
[Sc]
+2.0 -0.1 86 -1 +3 1028.3 1014.9
20 км 1/1 1500 м
[Sc]
+5.2 -0.6 66 1028.4 1015.1
Ю 2 20 км 1/1 1500 м
[Sc]
+5.0 -0.8 66 +3 +8 1028.4 1015.1
штиль 0 20 км 1/1 1500 м
[Sc Ci fib]
+6.8 0.0 62 +6 +12 1028.3 1015.1
ЮВ 1 20 км 1/1 1500 м
[Sc]
+7.2 0.0 60 +7 +10 1028.2 1015.1
Ю 1 20 км 1/1 1500 м
[Sc]
+6.0 -0.1 65 +5 +7 1028.4 1015.2
нст 1 20 км 1/1 1500 м
[Sc]
+5.5 -0.3 66 +5 +5 1028.6 1015.4
ЮЗ 1 20 км 1/1 1500 м
[Sc]
+3.2 +0.1 80 +2 +2 1029.0 1015.6
ЮЗ 2 20 км 1/1 1500 м
[Sc]
+0.3 -0.1 97 -4 -4 1029.5 1016.0
нст 1 15 км 1/1 1500 м
[Sc]
-1.8 -1.8 100 -4 -4 1029.8 1016.2 +8.3 10
Ю 1 2000 м дымка 4/4 150 м
[St]
-3.9 -3.9 100 -6 -6 1030.3 1016.6
ЮВ 2 100 м туман 5/5 150 м
[St]
-6.0 -6.0 100 -11 -11 1030.6 1016.8
ЮВ 1 н/о н/о -6.2 -6.2 100 -9 -9 1031.0 1017.1
Ю 2 н/о н/о -4.6 -4.6 100 -9 -9 1031.1 1017.3
н/о н/о -4.8 -4.8 100 1031.5 1017.7
нст 1 н/о н/о -4.7 -4.7 100 -7 -7 1031.9 1018.1
н/о н/о -3.7 -3.7 100 1031.4 1017.7
н/о н/о -2.7 -2.7 100 1031.2 1017.5
н/о н/о -2.1 -2.1 100 1031.1 1017.5
н/о н/о -1.6 -1.6 100 1031.0 1017.4
н/о н/о -1.1 -1.1 100 1031.6 1018.0
ЮВ 2 4000 м дымка 10/10 600 м
[Sc]
-0.8 -0.8 100 -5 -5 1031.9 1018.3 -6.2 10
В 2 1800 м дымка 10/10 60 м
[St]
-0.1 -0.1 100 -4 -4 1032.2 1018.7
ЮВ 4 2000 м дымка 10/10 60 м
[St]
+0.4 +0.4 100 -5 -5 1032.3 1018.8
ЮВ 3 3000 м дымка 10/10 90 м
[St]
+0.7 +0.7 100 -4 -4 1032.4 1018.9
ЮВ 4 3000 м дымка 10/10 120 м
[St]
+1.0 +1.0 100 -5 -5 1032.7 1019.2
ЮВ 4 4000 м дымка 10/10 150 м
[St]
+1.2 +1.2 100 -4 -4 1032.5 1019.0
ЮВ 3 5000 м дымка 10/10 150 м
[St]
+1.8 +1.8 100 -3 -3 1032.2 1018.8
ЮВ 2 5000 м дымка 10/10 180 м
[St]
+2.3 +2.2 99 -1 -1 1032.0 1018.6
ЮВ 2 7000 м дымка 10/10 700 м
[Sc]
+2.2 +2.2 100 -1 -1 1031.7 1018.3
штиль 0 7000 м дымка 10/10 700 м
[Sc]
+2.8 +2.4 97 +2 +2 1031.7 1018.3
нст 1 6000 м дымка 10/10 700 м
[Sc]
+1.8 +1.8 100 -0 -0 1031.4 1018.0
нст 1 6000 м дымка 10/10 700 м
[Sc]
+1.5 +1.5 100 -1 -1 1031.6 1018.1
штиль 0 4000 м дымка 10/10 600 м
[Sc]
+1.0 +1.0 100 -0 -0 1031.5 1018.0 +2.8 8
нст 1 3000 м дымка 10/10 600 м
[Sc]
+0.7 +0.7 100 -2 -2 1031.4 1017.9
штиль 0 4000 м дымка 10/10 700 м
[Sc]
+0.9 +0.9 100 -1 -1 1031.3 1017.8
н/о н/о +0.6 +0.6 100 1031.3 1017.8
н/о н/о +0.7 +0.7 100 1031.3 1017.8
ЮВ 2 н/о н/о +0.8 +0.8 100 -3 -3 1031.5 1018.0
ЮЗ 1 н/о н/о +0.8 +0.8 100 -1 -1 1031.4 1017.9
ЮВ 1 н/о н/о +0.4 +0.4 100 -2 -2 1031.2 1017.7
н/о н/о -0.3 -0.3 100 1031.0 1017.5
ЮВ 1 н/о н/о -2.0 -2.0 100 -4 -4 1031.3 1017.7
Ю 1 н/о н/о -3.2 -3.2 100 -6 -6 1031.6 1017.9
В 1 н/о н/о -3.9 -3.9 100 -6 -6 1031.6 1017.9
штиль 0 200 м туман 9/9 30 м
[St]
-3.7 -3.7 100 -5 -5 1031.7 1018.0 -4.2 8
штиль 0 200 м туман 9/9 30 м
[St]
-3.0 -3.0 100 -4 -4 1032.0 1018.3
В 1 200 м туман 9/9 60 м
[Sc]
-2.1 -2.1 100 -5 -4 1032.0 1018.4
нст 1 400 м туман 9/9 60 м
[St]
+0.4 +0.4 100 -2 -1 1031.9 1018.4
1800 м в посл. час туман 9/9 60 м
[St]
+2.0 +1.1 94 1031.8 1018.4
8000 м дымка 3/3 300 м
[St]
+3.5 +0.9 83 1031.4 1018.0
15 км {туман} ясно +5.3 +0.3 70 1030.7 1017.4
15 км ясно +5.7 +0.3 68 1030.4 1017.1
15 км ясно +6.2 +0.5 67 1030.2 1017.0
15 км ясно +6.1 +1.2 71 1030.0 1016.8
штиль 0 15 км ясно +3.8 +1.7 86 +3 +3 1030.1 1016.8
15 км ясно +1.6 +0.9 95 1030.5 1017.1
штиль 0 15 км ясно +0.5 +0.5 100 -1 -1 1030.7 1017.2 +6.3 7
Ю 1 15 км ясно -0.8 -0.8 100 -3 -3 1030.9 1017.3
8000 м дымка 3/3 300 м
[St]
-1.4 -1.4 100 1031.1 1017.5
н/о н/о -2.0 -2.0 100 1031.5 1017.9
З 1 н/о н/о -2.3 -2.3 100 -5 -5 1031.7 1018.0
штиль 0 н/о н/о -3.3 -3.3 100 -5 -5 1031.8 1018.1
нст 1 н/о н/о -4.0 -4.0 100 -7 -7 1032.4 1018.6
н/о н/о -3.1 -3.1 100 1032.3 1018.6
н/о н/о -2.1 -2.1 100 1032.5 1018.8
С 1 н/о н/о -2.0 -2.0 100 -4 -4 1032.7 1019.0
С 2 н/о н/о -0.7 -0.7 100 -5 -5 1033.1 1019.5
С 2 н/о н/о -1.8 -1.8 100 -6 -6 1033.6 1019.9
С 3 300 м туман 6/6 30 м
[St]
-2.5 -2.5 100 -8 -8 1034.0 1020.3 -4.2 7
С 2 300 м туман 6/6 60 м
[St]
-2.1 -2.1 100 -6 -6 1034.4 1020.7
С 3 300 м туман 6/6 60 м
[St]
-0.7 -0.7 100 -6 -5 1034.5 1020.9
С 3 800 м туман 6/6 60 м
[St]
+0.8 +0.8 100 -4 -2 1034.9 1021.4
С 2 4000 м в посл. час туман 1/1 90 м
[St]
+3.1 +3.1 100 -0 +5 1035.2 1021.8
С 2 10 км ясно +5.2 +2.9 85 +3 +9 1034.9 1021.6
С 2 12 км {туман} ясно +7.6 +1.4 65 +6 +11 1034.4 1021.2
15 км 1/0
[Ci fib]
+7.4 +3.1 74 1034.2 1021.0
С 1 15 км 1/0
[Ci fib]
+8.4 +1.8 63 +8 +10 1034.7 1021.5
нст 1 20 км 3/0
[Ci fib]
+7.9 +1.3 63 +7 +8 1034.7 1021.5
ЮЗ 2 20 км 6/0
[Cs]
+5.3 +1.6 77 +3 +3 1034.8 1021.5
15 км 8/0
[Cs]
+3.1 +1.6 90 1035.3 1021.9
СЗ 2 15 км 8/0
[Cs]
+2.1 +2.1 100 -1 -1 1035.7 1022.2 +8.9 5
15 км 8/0
[Cs]
+1.8 +1.8 100 1035.8 1022.3
СЗ 1 15 км 8/0
[Cs]
+1.8 +1.8 100 -0 -0 1036.0 1022.5
н/о н/о +0.4 +0.4 100 1036.6 1023.0
н/о н/о -0.4 -0.4 100 1036.6 1023.0
С 2 н/о н/о -0.4 -0.4 100 -4 -4 1036.7 1023.1
С 1 н/о н/о -0.8 -0.8 100 -3 -3 1036.8 1023.2
н/о н/о +0.8 +0.8 100 1036.4 1022.8
н/о н/о +0.1 +0.1 100 1036.5 1022.9
В 1 н/о н/о -1.8 -1.8 100 -4 -4 1037.3 1023.6
С 1 н/о н/о -0.6 -0.6 100 -3 -3 1037.4 1023.8
н/о н/о -0.6 -0.6 100 1037.6 1023.9
СЗ 1 10 км 5/5 180 м
[Sc]
-1.2 -1.2 100 -4 -3 1037.3 1023.6 -1.8 4
С 2 7000 м дымка 8/8 180 м
[St]
-0.9 -0.9 100 -5 -5 1038.2 1024.5
7000 м дымка 8/5 180 м
[St Ac trans]
+2.1 +2.1 100 1038.6 1025.1
нст 1 7000 м дымка 3/3 180 м
[St]
+5.2 +1.7 78 +4 +8 1038.4 1025.0
В 1 7000 м дымка 4/0
[Ci fib]
+6.1 +1.8 74 +5 +12 1038.4 1025.1
7000 м дымка 4/0
[Ci fib]
+7.8 +1.8 66 1038.1 1024.9
нст 1 7000 м дымка 1/0
[Ci fib]
+8.6 +2.0 63 +8 +14 1037.5 1024.3
В 1 7000 м дымка 1/0
[Ci fib]
+9.1 +2.2 62 +9 +13 1036.8 1023.6
штиль 0 8000 м дымка 4/0
[Ci fib]
+9.0 +2.1 62 +9 +11 1036.4 1023.2
штиль 0 10 км 4/0
[Ci fib]
+8.5 +2.3 65 +8 +9 1036.0 1022.8
С 1 15 км 6/0
[Cs]
+5.9 +2.7 80 +5 +5 1035.9 1022.6
С 1 15 км 4/0
[Ci fib]
+3.9 +3.3 96 +2 +2 1036.5 1023.1
З 1 12 км 4/0
[Ci fib]
+2.8 +2.6 99 +1 +1 1036.6 1023.1 +9.7 3
С 2 12 км 3/0
[Ci fib]
+0.4 +0.4 100 -3 -3 1036.9 1023.3
12 км 1/0
[Ci fib]
+1.5 +1.5 100 1037.0 1023.5
Местоположение метеостанции Мильхостов (Словакия): широта 48.67 долгота 21.73 высота над уровнем моря 106 м.
В архиве по умолчанию представлена погода в Мильхостове за последнюю неделю. Архивные данные за месяц целиком и за предыдущие месяцы, начиная с января 2011 года, Вы можете получить, выбрав интересующий диапазон дат из раскрывающегося списка и нажав кнопку "Найти!".
*Определитесь, кто Вы:
Внимание! Время в таблицах - всемирное. Для получения местного времени необходимо прибавить поправку, которая равна 1 ч.
Смотрите также архив погоды в соседних городах и на ближайших метеорологических станциях:
Партнеры нашего сайта:      
Пояснения к столбцам:
  • Ветер - указаны скорость ветра в м/с - средняя за 10 мин, порывы в срок и между сроками (в фигурных скобках) и направление, откуда дует ветер: С - северный,
  • СВ - северо-восточный, В - восточный, ЮВ - юго-восточный, Ю - южный, ЮЗ - юго-западный, З - западный, СЗ - северо-западный.
  • Видимость - горизонтальная дальность видимости в метрах или километрах. При видимости от 1 до 10 км при отсутствии осадков обычно наблюдается дымка, при ухудшении видимости до 1 км и менее - туман. В сухую погоду видимость может ухудшаться дымом, пылью или мглою.
  • Явления - указаны атмосферные явления, наблюдавшиеся в срок или в последний час перед сроком; фигурными скобками обозначены явления, наблюдавшиеся между сроками (за 1-3 часа до срока); квадратными скобками обозначены град или гололедные отложения с указанием их диаметра в мм.
  • Облачность - указаны через наклонную черту общая и нижняя облачность в баллах и высота нижней границы облаков в метрах; квадратными скобками обозначены формы облаков: Ci - перистые, Cs - перисто-слоистые, Cc - перисто-кучевые, Ac - высококучевые, As - высокослоистые, Sc - слоисто-кучевые, Ns - слоисто-дождевые, Cu - кучевые, Cb - кучево-дождевые. Подробнее классификацию облаков см. в Атласе облаков (PDF).
  • T - Температура воздуха - температура, измеренная на высоте 2 м над землей.
  • Td - Температура точки росы - температура, при понижении до которой содержащийся в воздухе водяной пар достигнет насыщения.
  • f - Относительная влажность воздуха - влажноcть воздуха, измеренная на высоте 2 м над землей.
  • Te - Эффективная температура - температура, которую ощущает одетый по сезону человек в тени. Характеристика душности погоды. При расчете учитывается влияние влажности воздуха и скорости ветра на теплоощущения человека.
  • Tes - Эффективная температура на солнце - температура, которую ощущает человек, с поправкой на солнечный нагрев. Характеристика знойности погоды. Зависит от высоты солнца над горизонтом, облачности и скорости ветра. Ночью, в пасмурную погоду, а также при ветре 12 м/с и более поправка равна нулю.
  • P - Атмосферное давление - приведенное к уровню моря атмосферное давление.
  • Po - Атмосферное давление - измеренное на уровне метеостанции атмосферное давление.
  • Tmin - Минимальная температура - минимум температуры воздуха на высоте 2 м над землей.
  • Tmax - Максимальная температура - максимум температуры воздуха на высоте 2 м над землей.
  • R - Количество осадков - Количество выпавших осадков за период времени, мм. При наведении курсора мыши на число - период времени, за который выпало указанное количество осадков.
  • R24 - Количество осадков - Количество выпавших осадков за 24 часа, мм.
  • S - Снежный покров - Высота снежного покрова, см. При наведении курсора мыши на число - состояние снежного покрова и степень покрытия местности в баллах.